Showing default

HAIYANG 2B, 43655

Orbit data source: Space-Track

HAIYANG 2B, 43655 is a Chinese payload satellite in SSO that was launched on Wed, 24 Oct 2018 UTC via a CHANG ZHENG 4B launch vehicle from the Taiyaun Space Center, China (TSC). Payload-class satellites include a variety of spacecraft equipped with specific instruments for various scientific and technological missions. These include communications satellites like Starlink; space stations such as the ISS; scientific satellites like the Hubble; Earth observation satellites from companies like Planet Labs, Umbra, and HawkEye 360; GPS; miniature CubeSats for education and research; and military/defense satellites.

Loading next visibility...
Identifier
43655, 2018-081A
Orbit
SSO
Country
Flag of CNCN / PRC
Related business
Manufacturer
SISE
Mission
Operational Civil Earth Obs Sci
Bus & Motor
CAST-968?, Unknown motor
Mass
~1,500 kg wet, ~1,500 kg dry
Launch date (UTC)
2018-10-24 (8 years ago)
Launch vehicle
CHANG ZHENG 4B
Launch site
Taiyaun Space Center, China (TSC)
Object type
Payload
Rocket body
Debris
Shape & HBR
Box + 2 Pan, 2.0 m
Radar Cross Section
2.315 m², Large (>1 m²)

Expand to show TLE details & history
Last TLE update: 22 hours ago

TLE from 22 hours ago
0 HAIYANG 2B
1 43655U 18081A   26172.51533058 -.00000048  00000-0 -40341-5 0  9990
2 43655  99.3286 181.2067 0000188   0.1386 359.9766 13.79307105385526
Epoch: 2026-06-21T12:22Z
TLE epoch observation values (Epoch: 2026-06-21T12:22:04.562Z)
Latitude
0.00001°
Longitude
85.9732°
Altitude
969.046 km
Speed
7.367 km/s
True Right ascension
12h 04m 49s
True Declination
0° 00' 00"
Sunlit
Object was in daylight at epoch
Visualization orbit readout
Latitude
Unknown
Longitude
Unknown
Altitude
Unknown
Speed
Unknown
Apparent Right ascension
Unknown
Apparent Declination
Unknown
Sunlit
N/A
Visualization observer readout
Local Sidereal Time
21:39:47
Azimuth
Unknown
Elevation
Unknown
Doppler factor
Unknown
Orbital elements
Apogee altitude
963.727 km
Perigee altitude
963.451 km
Semi-major axis
7,341.726 km
Eccentricity
0.00002
Inclination
99.3286°
RAAN
181.2067°
Arg. of periapsis
0.1386°
True anomaly
359.9766°
Mean anomaly
359.9766°
Eccentric anomaly
359.9766°
Mean motion
3.45021 °/min
Orbital period
104.34 mins
BSTAR
-0.0000040341
Loading maneuver chart data...
Computing Atmospheric mass density...
Loading historical data...
Loading historical data...
Loading historical data...
Loading historical data...
Loading historical data...
Loading historical data...
Loading historical data...

Documentation

Showing up to 5 results
|